Meath Environmental Platform

Observations for Trim Patrick St

Time AQI Temp °C Hum % Pres Pa CO μg/m³ H₂S μg/m³ NO μg/m³ NO₂ μg/m³ O₃ μg/m³ SO₂ μg/m³ PM1 μg/m³ PM2.5 μg/m³ PM10 μg/m³
Thursday 27 August 2026
11:23 3 19.6 78 38,460 0 0.23 0.92 9.84 59.23 0 21.72 30.7 33.43
11:22 3 19.7 78 38,460 0 0.3 0.94 10.32 56.41 0 19.14 28.58 31.44
11:21 3 19.7 78 38,460 0 0 1.02 9.49 50.47 0 20 30.03 32.08
11:20 3 19.7 78 38,460 0 0 1.16 9.18 56.97 0 20 29.28 29.87
11:19 3 19.7 78 38,460 0 0 1.09 9.21 56.02 0 22.57 30.06 32.14
11:18 3 19.8 78 38,460 0.01 0 1.13 10.61 55.69 0 21.72 31.48 33.59
11:17 3 19.8 78 38,460 0.03 0.14 0.92 15.75 55.27 0 23.43 32.88 38.52
11:16 3 19.8 78 38,460 0.05 0 0.89 9.18 46.8 0 20.86 30 31.31
11:15 3 19.8 78 38,460 0.03 0.3 0.74 12.2 54.81 0 20.86 30.73 34.91
11:14 3 19.8 78 38,460 0.04 0 0.71 13.03 49.06 0 21.72 32.85 34.91
11:13 3 19.9 77 38,460 0.04 0 0.72 9.86 56.96 0 20.86 31.5 34.33
11:12 3 19.9 78 38,460 0.18 2.01 0.76 11.67 51.53 0.16 20 30.72 34.17
11:11 3 19.9 78 38,460 0.03 0.45 0.9 12.68 50.94 0 20 29.31 29.92
11:10 3 19.9 78 38,460 0.03 0 0.98 9.41 45.77 0 21.72 30.72 32.75
11:09 3 20 78 38,460 0.04 0 1.07 9.06 54.53 0 20.86 31.45 34.94
11:08 3 20 78 38,460 0.02 0 1.26 10.11 56.43 0 21.72 32.19 36.43
11:07 3 20 78 38,460 0.05 0 1.4 10.35 57.65 0 22.57 31.47 33.56
11:06 3 20 78 38,460 0.04 0.11 1.23 11.36 56.14 0 22.57 31.39 33.39
11:05 3 20 78 38,460 0.06 0 1.08 10.45 50.26 0 22.57 30.72 32.04
11:04 3 20 78 38,460 0.03 0 1.06 11.45 52.44 0 21.72 31.45 34.94